NDF427 LIRF-EDDH

Flight info

Callsign NDF427
Flight time N/A
Altitude 34000
Route SOSIV6R SOVAN DCT AMTEL DCT NEVMO DCT DIKEM DCT SUMIR DCT BRENO DCT KONIN DCT KEMES DCT ABGUS DCT DIRBO/N0403F230 T902 RARUP RARUP3P
Aircraft A321/M-SDE3FGHIRWY/LB1

Departure

Time 2026-02-18 14:40
Airport Rome–Fiumicino Leonardo da Vinci International Airport (LIRF)

Arrival

Time N/A
Airport Hamburg Helmut Schmidt Airport (EDDH)
Time Latitude Longitude Altitude Speed Heading
2026-02-18 14:10 41.79611 12.25951 15 ft 0 kts 294°
2026-02-18 14:29 41.79610 12.25955 15 ft 2 kts 295°
2026-02-18 14:30 41.79601 12.25977 16 ft 3 kts 304°
2026-02-18 14:30 41.79589 12.25997 16 ft 3 kts 322°
2026-02-18 14:30 41.79573 12.26010 16 ft 3 kts 354°
2026-02-18 14:30 41.79560 12.26009 15 ft 1 kts 24°
2026-02-18 14:31 41.79559 12.26009 15 ft 1 kts 25°
2026-02-18 14:33 41.79636 12.26057 16 ft 16 kts 25°
2026-02-18 14:33 41.79728 12.26108 15 ft 12 kts 14°
2026-02-18 14:33 41.79799 12.26148 15 ft 10 kts 25°
2026-02-18 14:34 41.79860 12.26186 15 ft 9 kts 25°
2026-02-18 14:34 41.79930 12.26229 15 ft 16 kts 24°
2026-02-18 14:34 41.80033 12.26292 15 ft 16 kts 25°
2026-02-18 14:34 41.80128 12.26352 15 ft 14 kts 25°
2026-02-18 14:35 41.80210 12.26403 15 ft 12 kts 24°
2026-02-18 14:35 41.80297 12.26396 15 ft 17 kts 341°
2026-02-18 14:35 41.80410 12.26378 17 ft 14 kts 29°
2026-02-18 14:35 41.80453 12.26484 15 ft 12 kts 69°
2026-02-18 14:36 41.80481 12.26582 16 ft 11 kts 70°
2026-02-18 14:36 41.80512 12.26697 15 ft 17 kts 70°
2026-02-18 14:36 41.80552 12.26842 16 ft 16 kts 70°
2026-02-18 14:36 41.80588 12.26972 15 ft 12 kts 70°
2026-02-18 14:37 41.80711 12.27055 15 ft 10 kts
2026-02-18 14:37 41.80787 12.27050 15 ft 12 kts 347°
2026-02-18 14:37 41.80861 12.27017 15 ft 10 kts 340°
2026-02-18 14:38 41.80924 12.26986 15 ft 9 kts 340°
2026-02-18 14:38 41.80960 12.26935 13 ft 8 kts 264°
2026-02-18 14:38 41.80951 12.26901 13 ft 0 kts 249°
2026-02-18 14:39 41.80941 12.26864 14 ft 22 kts 249°
2026-02-18 14:39 41.80803 12.26368 20 ft 88 kts 250°
2026-02-18 14:39 41.80522 12.25367 16 ft 139 kts 249°
2026-02-18 14:40 41.80152 12.23986 105 ft 169 kts 246°
2026-02-18 14:40 41.79764 12.22511 676 ft 168 kts 247°
2026-02-18 14:40 41.79377 12.21031 1328 ft 169 kts 250°
2026-02-18 14:40 41.79326 12.19405 1876 ft 179 kts 274°
2026-02-18 14:41 41.80785 12.16277 2329 ft 211 kts 305°
2026-02-18 14:41 41.81713 12.14732 2771 ft 213 kts 304°
2026-02-18 14:41 41.82642 12.13178 3258 ft 214 kts 304°
2026-02-18 14:42 41.83566 12.11617 3758 ft 214 kts 303°
2026-02-18 14:42 41.84255 12.09869 4056 ft 212 kts 284°
2026-02-18 14:42 41.84532 12.07886 4253 ft 226 kts 272°
2026-02-18 14:42 41.84708 12.05677 4426 ft 250 kts 273°
2026-02-18 14:43 41.84901 12.03313 5008 ft 258 kts 274°
2026-02-18 14:43 41.85102 12.00916 5765 ft 259 kts 275°
2026-02-18 14:43 41.85307 11.98510 6526 ft 261 kts 276°
2026-02-18 14:43 41.85515 11.96083 7241 ft 262 kts 276°
2026-02-18 14:44 41.85920 11.93692 7927 ft 266 kts 293°
2026-02-18 14:44 41.87021 11.91686 8597 ft 273 kts 318°
2026-02-18 14:44 41.88719 11.90516 9276 ft 282 kts 344°
2026-02-18 14:44 41.90700 11.90513 9928 ft 292 kts
2026-02-18 14:45 41.94857 11.92012 10372 ft 330 kts 12°
2026-02-18 14:45 41.97139 11.92855 10496 ft 350 kts 12°
2026-02-18 14:45 41.99544 11.93744 10619 ft 368 kts 12°
2026-02-18 14:46 42.02070 11.94675 10854 ft 382 kts 12°
2026-02-18 14:46 42.04652 11.95628 11366 ft 387 kts 12°
2026-02-18 14:46 42.07257 11.96589 11967 ft 390 kts 12°
2026-02-18 14:46 42.09827 11.97834 12541 ft 397 kts 21°
2026-02-18 14:47 42.12287 11.99575 13091 ft 402 kts 24°
2026-02-18 14:47 42.14779 12.01300 13631 ft 401 kts 19°
2026-02-18 14:47 42.17417 12.02485 14128 ft 398 kts
2026-02-18 14:47 42.20186 12.03011 14658 ft 396 kts 358°
2026-02-18 14:48 42.22915 12.02867 15143 ft 393 kts 348°
2026-02-18 14:48 42.25614 12.02266 15627 ft 393 kts 346°
2026-02-18 14:48 42.28316 12.01652 16132 ft 395 kts 346°
2026-02-18 14:48 42.31035 12.01041 16635 ft 397 kts 346°
2026-02-18 14:49 42.35583 12.00023 17440 ft 400 kts 346°
2026-02-18 14:49 42.38331 11.99408 17927 ft 402 kts 346°
2026-02-18 14:49 42.41095 11.98791 18396 ft 403 kts 346°
2026-02-18 14:50 42.43873 11.98171 18812 ft 405 kts 346°
2026-02-18 14:50 42.46664 11.97546 19225 ft 407 kts 346°
2026-02-18 14:50 42.49463 11.96913 19624 ft 409 kts 346°
2026-02-18 14:50 42.52277 11.96272 20023 ft 411 kts 346°
2026-02-18 14:51 42.55106 11.95627 20406 ft 413 kts 346°
2026-02-18 14:51 42.57947 11.94983 20799 ft 415 kts 346°
2026-02-18 14:51 42.60808 11.94332 21178 ft 417 kts 346°
2026-02-18 14:51 42.63671 11.93681 21553 ft 419 kts 346°
2026-02-18 14:52 42.66561 11.93022 21925 ft 421 kts 346°
2026-02-18 14:52 42.69460 11.92362 22309 ft 423 kts 346°
2026-02-18 14:52 42.72370 11.91703 22683 ft 425 kts 346°
2026-02-18 14:52 42.75299 11.91040 23054 ft 427 kts 346°
2026-02-18 14:53 42.81184 11.89675 23708 ft 430 kts 343°
2026-02-18 14:53 42.84079 11.88514 24009 ft 426 kts 335°
2026-02-18 14:53 42.86750 11.86789 24321 ft 425 kts 328°
2026-02-18 14:54 42.89354 11.84871 24631 ft 426 kts 328°
2026-02-18 14:54 42.91968 11.82955 24951 ft 427 kts 328°
2026-02-18 14:54 42.94595 11.81035 25266 ft 429 kts 328°
2026-02-18 14:54 42.97232 11.79111 25578 ft 430 kts 329°
2026-02-18 14:55 42.99871 11.77181 25932 ft 429 kts 329°
2026-02-18 14:55 43.02497 11.75260 26360 ft 427 kts 329°
2026-02-18 14:55 43.05113 11.73345 26785 ft 426 kts 328°
2026-02-18 14:55 43.07714 11.71435 27186 ft 424 kts 328°
2026-02-18 14:56 43.10305 11.69526 27608 ft 422 kts 328°
2026-02-18 14:56 43.12884 11.67626 28028 ft 420 kts 328°
2026-02-18 14:56 43.15454 11.65732 28445 ft 418 kts 328°
2026-02-18 14:56 43.18009 11.63848 28863 ft 417 kts 328°
2026-02-18 14:57 43.23379 11.60880 29643 ft 421 kts 343°
2026-02-18 14:57 43.26288 11.60309 30019 ft 424 kts 350°
2026-02-18 14:57 43.29223 11.59948 30343 ft 423 kts 349°
2026-02-18 14:58 43.32149 11.59581 30676 ft 421 kts 349°
2026-02-18 14:58 43.35061 11.59213 31018 ft 420 kts 349°
2026-02-18 14:58 43.37963 11.58843 31352 ft 418 kts 349°
2026-02-18 14:58 43.40860 11.58469 31683 ft 417 kts 348°
2026-02-18 14:59 43.43743 11.58095 31992 ft 416 kts 348°
2026-02-18 14:59 43.46623 11.57724 32309 ft 415 kts 348°
2026-02-18 14:59 43.49495 11.57357 32632 ft 414 kts 348°
2026-02-18 14:59 43.52392 11.56992 32964 ft 412 kts 348°
2026-02-18 15:00 43.55246 11.56631 33300 ft 411 kts 347°
2026-02-18 15:00 43.58091 11.56266 33605 ft 410 kts 347°
2026-02-18 15:00 43.60931 11.55902 33894 ft 410 kts 347°
2026-02-18 15:01 43.69442 11.54802 33985 ft 409 kts 347°
2026-02-18 15:01 43.75103 11.54070 33986 ft 408 kts 347°
2026-02-18 15:02 43.80763 11.53338 33997 ft 408 kts 347°
2026-02-18 15:02 43.86424 11.52609 33998 ft 409 kts 347°
2026-02-18 15:03 43.94912 11.51506 34001 ft 409 kts 347°
2026-02-18 15:04 44.00569 11.50763 33993 ft 408 kts 347°
2026-02-18 15:04 44.06223 11.50024 33989 ft 408 kts 347°